STARLINK-32944, 63022

Orbit data source: Space-Track

STARLINK-32944, 63022 is a payload satellite owned by SpaceX/Seattle (US) in LEO that was launched on Sat, 15 Feb 2025 UTC via an FALCON 9 launch vehicle from the Air Force Eastern Test Range (AFETR). Payload-class satellites include a variety of spacecraft equipped with specific instruments for various scientific and technological missions. These include communications satellites like Starlink; space stations such as the ISS; scientific satellites like the Hubble; Earth observation satellites from companies like Planet Labs, Umbra, and HawkEye 360; GPS; miniature CubeSats for education and research; and military/defense satellites.

Loading next visibility...
Identifier
63022, 2025-032T
Orbit
LEO
Country
Flag of USUS
Related business
Manufacturer
SpaceX/Seattle
Mission
Operational Commercial Communications
Bus & Motor
STARLINK V2M, Unknown motor
Mass
730 kg wet, ~700 kg dry
Launch date (UTC)
2025-02-15 (8 months ago)
Launch vehicle
FALCON 9
Launch site
Air Force Eastern Test Range (AFETR)
Object type
Payload
Rocket body
Debris
Shape & HBR
Box + 2 Pan, 17.7 m
Radar Cross Section
33.884 m², Large (>1 m²)

Expand to show TLE details & history
Last TLE update: 14 hours ago

TLE from 14 hours ago
0 STARLINK-32944
1 63022U 25032T   25301.59866783  .00061989  00000-0  22371-2 0  9998
2 63022  43.0025   2.4476 0001342 292.9428  67.1282 15.27670248 40415
Epoch: 2025-10-28T14:22Z
TLE epoch observation values (Epoch: 2025-10-28T14:22:04.900Z)
Latitude
-0.00002°
Longitude
109.74331°
Altitude
482.197 km
Speed
7.626 km/s
True Right ascension
00h 09m 47s
True Declination
0° 00' 00"
Sunlit
Object was in full shadow at epoch
Visualization orbit readout
Latitude
Unknown
Longitude
Unknown
Altitude
Unknown
Speed
Unknown
Apparent Right ascension
Unknown
Apparent Declination
Unknown
Sunlit
N/A
Visualization observer readout
Local Sidereal Time
00:08:05
Azimuth
Unknown
Elevation
Unknown
Doppler factor
Unknown
Orbital elements
Apogee altitude
485.645 km
Perigee altitude
483.803 km
Semi-major axis
6,862.861 km
Eccentricity
0.00013
Inclination
43.0025°
RAAN
2.4476°
Arg. of periapsis
292.9428°
True anomaly
67.14237°
Mean anomaly
67.1282°
Eccentric anomaly
67.13528°
Mean motion
3.81756 °/min
Orbital period
94.3 mins
BSTAR
0.0022371
Loading maneuver chart data...
Computing Atmospheric mass density...
Loading historical data...
Loading historical data...
Loading historical data...
Loading historical data...
Loading historical data...
Loading historical data...
Loading historical data...

Documentation

Showing up to 5 results
|